map of IKA home
Great Circle Mapper logo
IKA - Airport
Location
City:  Tehran, Iran
Near (Alt.):Teheran
Name:Imam Khomeini International Airport
Old (Alt.):Ahmadabad
ICAO / IATA:OIIE / IKA

Details
Type:Airport (Aerodrome, Airfield)
Use:International (customs port of entry)
Latitude:3524'58"N (35.416111)
Longitude:5109'08"E (51.152222)
Datum:WGS 1984
Elevation:3305 ft (1007 m)
Variation:4.52E (WMM2015 magnetic declination)
0.06 annual change
Runways:2
Longest:13940 × 148 ft (4249 × 45 m), paved

Time
Time Zone:UTC+3:30 (DST+4:30)
Local Time:

Weather
METAR:OIIE 260300Z 31018KT CAVOK 22/06 Q1014
TAF:OIIE 251720Z 2518/2624 33006MPS 7000 FEW040 SCT100
TEMPO 2523/2608 33007G14MPS
TEMPO 2608/2614 25007MPS FEW040 BKN100
TEMPO 2621/2624 30007G12MPS

Related Locations
Nearby:
Farthest:GMR: 11508 mi / 18521 km
Mangareva [Totegegie], Gambier Islands, PF

Find:

   beyond  
but within

Other Information
Maps:
NOTAMs:
Links:
Sources:

  
flag of Iran   

Sectional Chart

Flight Planning
at skyvector.com

Satellite Image

Google Maps Satellite View

 

Copyright © 2004-2015 Karl L. Swartz. All rights reserved.
The Great Circle Mapper name and logo are trademarks of the Great Circle Mapper.
All other trademarks mentioned herein belong to their respective owners.
Please see credits for attibutions and further copyright information.

  Follow gcmap on Facebook Follow gcmap on Twitter Follow gcmap on Google+

hCard Microformat

Geo Microformat